Location: Gymnasium_Grossenhain
(51.3000°N, 13.5950°E)
Time: 23:56:54
(UTC+01:00)

AO-7 - Visible Passes

Search period start: 14 December 2024 00:00
Search period end: 24 December 2024 00:00
Orbit: 1439 x 1459 km, 102.0° (Epoch: 14 December)

Date Brightness Start Highest point End Pass type
(mag) Time Alt. Az. Time Alt. Az. Time Alt. Az.
14 Dec ? 05:24:33 10° NNE 05:32:28 46° E 05:40:19 10° S visible
14 Dec ? 07:17:22 10° NNE 07:25:23 55° WNW 07:33:22 10° SW visible
14 Dec ? 16:28:57 10° SSE 16:37:18 87° WSW 16:45:40 10° NNW visible
14 Dec ? 18:24:50 10° SW 18:31:10 24° W 18:37:31 10° NW visible
15 Dec ? 04:25:34 10° NE 04:31:36 22° E 04:37:36 10° SE visible
15 Dec ? 06:17:14 10° NNE 06:25:36 82° ESE 06:33:55 10° SSW visible
15 Dec ? 17:22:24 10° S 17:30:23 49° W 17:38:24 10° NNW visible
15 Dec ? 19:24:21 10° W 19:25:18 10° WNW 19:26:15 10° WNW visible
16 Dec ? 05:17:29 10° NNE 05:25:16 42° E 05:32:59 10° SSE visible
16 Dec ? 07:10:13 10° NNE 07:18:19 59° WNW 07:26:23 10° SW visible
16 Dec ? 16:21:51 10° SSE 16:30:11 87° ENE 16:38:32 10° NNW visible
16 Dec ? 18:17:18 10° SW 18:23:55 26° W 18:30:35 10° NW visible
17 Dec ? 04:18:42 10° NE 04:24:20 19° E 04:29:56 10° SE visible
17 Dec ? 06:10:08 10° NNE 06:18:28 76° ESE 06:26:46 10° SSW visible
17 Dec ? 17:15:08 10° S 17:23:12 54° WSW 17:31:19 10° NNW visible
17 Dec ? 19:15:15 10° W 19:17:58 12° W 19:20:42 10° WNW visible
18 Dec ? 05:10:27 10° NNE 05:18:04 38° E 05:25:39 10° SSE visible
18 Dec ? 07:03:05 10° NNE 07:11:15 64° WNW 07:19:23 10° SW visible
18 Dec ? 18:09:47 10° SSW 18:16:41 28° W 18:23:37 10° NW visible
19 Dec ? 04:11:53 10° NE 04:17:04 17° E 04:22:13 10° SE visible
19 Dec ? 06:03:01 10° NNE 06:11:20 70° ESE 06:19:36 10° S visible
19 Dec ? 17:07:54 10° S 17:16:03 58° WSW 17:24:15 10° NNW visible
19 Dec ? 19:06:59 10° WSW 19:10:40 13° W 19:14:22 10° NW visible
20 Dec ? 05:03:24 10° NNE 05:10:52 35° E 05:18:16 10° SSE visible
20 Dec ? 06:55:56 10° NNE 07:04:09 69° WNW 07:12:22 10° SW visible
20 Dec ? 18:02:20 10° SSW 18:09:27 31° W 18:16:38 10° NW visible
21 Dec ? 04:05:08 10° NE 04:09:46 16° E 04:14:22 10° ESE visible
21 Dec ? 05:55:55 10° NNE 06:04:11 65° ESE 06:12:25 10° S visible
21 Dec ? 17:00:41 10° S 17:08:53 63° WSW 17:17:09 10° NNW visible
21 Dec ? 18:58:58 10° WSW 19:03:21 15° W 19:07:46 10° NW visible
22 Dec ? 04:56:24 10° NNE 05:03:39 32° E 05:10:52 10° SSE visible
22 Dec ? 06:48:48 10° NNE 06:57:05 74° WNW 07:05:20 10° SSW visible
22 Dec ? 17:54:54 10° SSW 18:02:14 34° W 18:09:37 10° NNW visible
23 Dec ? 03:58:30 10° NE 04:02:28 14° E 04:06:25 10° ESE visible
23 Dec ? 05:48:49 10° NNE 05:57:02 60° ESE 06:05:12 10° S visible
23 Dec ? 16:53:29 10° S 17:01:44 69° WSW 17:10:02 10° NNW visible
23 Dec ? 18:51:05 10° WSW 18:56:04 17° W 19:01:04 10° NW visible
